Regional Weather Roundup
Issued by NWS

Home | Current Version | Previous Version | Text Only | Print | Product List | Glossary Off
Versions: 1 2 3 4 5 6 7 8 9 10 11 12 13 14 15 16 17 18 19 20 21 22 23 24 25 26 27 28 29 30 31 32 33 34 35 36 37 38 39 40 41 42 43 44 45 46 47 48 49 50

000
ASUS43 KLMK 290210
RWRKY
KENTUCKY REGIONAL WEATHER ROUNDUP
NATIONAL WEATHER SERVICE LOUISVILLE KY
1000 PM EDT THU AUG 28 2014

NOTE "FAIR" INDICATES FEW OR NO CLOUDS BELOW 12,000 FEET
WITH NO SIGNIFICANT WEATHER AND/OR OBSTRUCTIONS TO VISIBILITY.

KYZ001>023-026-027-061>063-070>075-290300-
WESTERN AND SOUTH CENTRAL KENTUCKY

CITY           SKY/WX    TMP DP  RH WIND       PRES   REMARKS
PADUCAH        CLOUDY    73  71  93 E3        30.00R FOG
HENDERSON      CLOUDY    73  70  88 NE5       30.03R
OWENSBORO      CLOUDY    78  72  82 CALM      30.03R
HOPKINSVILLE   CLOUDY    78  78 100 SE2       30.01R
BOWLING GREEN  MOCLDY    74  72  93 CALM      30.02R
GLASGOW        CLOUDY    73  73 100 CALM      30.03R
$$

KYZ024-025-028>034-038-045-046-053-290300-
NORTH CENTRAL KENTUCKY

CITY           SKY/WX    TMP DP  RH WIND       PRES   REMARKS
LOUISVILLE/SDF PTCLDY    82  70  66 E7        30.04R
LOUISVILLE/LOU PTCLDY    82  70  66 E3        30.05R
FORT KNOX      MOCLDY    79  72  78 E6        30.03R
$$

KYZ035>037-039>044-047>052-055>060-089>105-290300-
NORTHEAST KENTUCKY

CITY           SKY/WX    TMP DP  RH WIND       PRES   REMARKS
LEXINGTON      CLEAR     78  68  71 E6        30.07R
COVINGTON      PTCLDY    76  61  59 E9        30.08R
FRANKFORT      CLEAR     78  69  73 NE3       30.06R
$$

KYZ054-064>069-076>088-106>120-290300-
SOUTHEAST KENTUCKY

CITY           SKY/WX    TMP DP  RH WIND       PRES   REMARKS
JACKSON        CLEAR     73  66  78 CALM      30.10R
LONDON         CLEAR     77  69  76 NE3       30.08R
SOMERSET       CLEAR     77  68  73 CALM      30.07S
MIDDLESBORO    CLEAR     75  71  87 CALM      30.08R
MONTICELLO     PTCLDY    76  73  90 CALM      30.07R
$$




USA.gov is the U.S. government's official web portal to all federal, state and local government web resources and services.